[[{"header":{"parameterUnit":"m.s-1","parameterCategory":2,"la1":30.2992,"la2":30.254,"lo1":-89.0895,"lo2":-89.0443,"dy":0.0025,"dx":0.0025,"nx":19,"ny":19,"refTime":"2026-05-09T21:00:00:Z","depth":"0","parameterNumber":2,"parameterNumberName":"U-component_of_CURRENTS"},"data":[0,0,0,-0.1822,-0.1825,-0.1971,-0.1972,-0.2106,-0.2107,0,0,0,0,0,0,0,0,0,0,0,-0.1761,-0.1762,-0.1822,-0.1825,-0.1971,-0.1972,-0.2106,-0.2107,0,0,0,0,0,0,0,0,0,0,0,-0.1761,-0.1762,-0.1763,-0.1826,-0.1971,-0.1972,-0.2106,-0.201,0,0,0,0,0,0,0,0,0,0,-0.1876,-0.1827,-0.1762,-0.1763,-0.1827,-0.1971,-0.1972,-0.2006,-0.2016,-0.2023,0,-0.2038,0,-0.2077,-0.2114,-0.2115,0,0,0,-0.1832,-0.1819,-0.1857,-0.1763,-0.1828,-0.197,-0.1907,-0.2012,-0.2023,-0.2036,-0.2041,-0.2046,-0.2079,-0.2115,-0.2116,-0.2258,-0.2259,0,0,-0.1824,-0.1792,-0.1849,-0.1863,-0.1855,-0.1902,-0.1911,-0.202,-0.2026,-0.2041,-0.205,-0.2082,-0.2116,-0.2117,-0.2258,-0.2258,0,0,0,-0.1796,-0.1786,-0.1823,-0.1857,-0.1888,-0.1906,-0.1917,-0.2021,-0.2033,-0.2052,-0.2083,-0.2116,-0.2118,-0.2257,-0.2258,-0.2261,0,0,0,-0.1792,-0.1771,-0.1819,-0.1803,-0.1886,-0.1965,-0.1916,-0.2025,-0.2039,-0.2082,-0.2116,-0.2119,-0.2256,-0.2257,-0.2259,-0.2221,0,0,0,-0.1757,-0.1767,-0.178,-0.1801,-0.1862,-0.1964,-0.1983,-0.2029,-0.2058,-0.2115,-0.2119,-0.2255,-0.2257,-0.2258,-0.222,-0.2169,0,0,0,-0.1725,-0.1766,-0.1779,-0.1838,-0.1861,-0.1973,-0.1983,-0.207,-0.2121,-0.2117,-0.2256,-0.2258,-0.2257,-0.2219,-0.217,-0.1989,-0.1973,0,0,-0.1765,-0.177,-0.1808,-0.1824,-0.1926,-0.1954,-0.2066,-0.213,-0.215,-0.2216,-0.222,-0.226,-0.222,-0.2169,-0.2093,-0.2072,0,0,0,-0.1814,-0.1837,-0.1871,-0.193,-0.2002,-0.2065,-0.2143,-0.2175,-0.2244,-0.2189,-0.2296,-0.227,-0.2237,-0.2131,-0.2117,-0.1916,-0.2266,-0.2266,-0.2266,-0.1832,-0.1876,-0.1941,-0.2005,-0.2065,-0.2159,-0.2205,-0.2261,-0.2289,-0.2324,-0.2301,-0.23,-0.2192,-0.2178,-0.1976,-0.2355,-0.2355,-0.2355,-0.2355,-0.1891,-0.192,-0.1973,-0.2043,-0.21,-0.2176,-0.2265,-0.2291,-0.2323,-0.2353,-0.2322,-0.2176,-0.2161,-0.1952,-0.2356,-0.2356,-0.2356,-0.2356,-0.2355,-0.1883,-0.19,-0.1942,-0.2015,-0.2073,-0.2152,-0.2158,-0.2233,-0.2288,-0.2282,-0.2124,-0.2122,-0.1906,-0.2254,-0.2254,-0.2253,-0.2253,-0.2253,-0.2253,-0.1842,-0.189,-0.1905,-0.1977,-0.1987,-0.2013,-0.2077,-0.2075,-0.2061,-0.2084,-0.2083,-0.1873,-0.2267,-0.2234,-0.2247,-0.2248,-0.2249,-0.2249,-0.225,-0.1812,-0.1815,-0.1834,-0.1841,-0.1861,-0.18,-0.1877,-0.1807,-0.1818,-0.1771,-0.1603,-0.1974,-0.1934,-0.1945,-0.1904,-0.1831,-0.1831,-0.1831,-0.1831,-0.1752,-0.1773,-0.175,-0.1732,-0.1709,-0.1699,-0.1535,-0.1483,-0.1383,-0.1277,-0.1321,-0.1296,-0.1322,-0.1247,-0.1273,-0.122,-0.0975,-0.0974,-0.0973,-0.1703,-0.1713,-0.1659,-0.1665,-0.1632,-0.1546,-0.1343,-0.1138,-0.0959,-0.0926,-0.1077,-0.1113,-0.1073,-0.113,-0.1017,-0.107,-0.0987,0,0]},{"header":{"parameterUnit":"m.s-1","parameterCategory":2,"la1":30.2992,"la2":30.254,"lo1":-89.0895,"lo2":-89.0443,"dy":0.0025,"dx":0.0025,"nx":19,"ny":19,"refTime":"2026-05-09T21:00:00:Z","depth":"0","parameterNumber":3,"parameterNumberName":"V-component_of_CURRENTS"},"data":[0,0,0,-0.0326,-0.0327,-0.0372,-0.0372,-0.0405,-0.0405,0,0,0,0,0,0,0,0,0,0,0,-0.0307,-0.0308,-0.0326,-0.0327,-0.0372,-0.0372,-0.0405,-0.0405,0,0,0,0,0,0,0,0,0,0,0,-0.0307,-0.0308,-0.0308,-0.0327,-0.0372,-0.0372,-0.0405,-0.0376,0,0,0,0,0,0,0,0,0,0,-0.0335,-0.0319,-0.0307,-0.0308,-0.0328,-0.0372,-0.0372,-0.0375,-0.0378,-0.0379,0,-0.039,0,-0.0402,-0.0407,-0.0407,0,0,0,-0.0322,-0.0317,-0.0334,-0.0308,-0.0328,-0.0372,-0.035,-0.0376,-0.038,-0.0383,-0.039,-0.0392,-0.0402,-0.0407,-0.0408,-0.0422,-0.0422,0,0,-0.032,-0.0309,-0.0332,-0.0337,-0.0344,-0.0349,-0.0352,-0.0379,-0.038,-0.039,-0.0393,-0.0403,-0.0408,-0.0408,-0.0422,-0.0422,0,0,0,-0.0316,-0.0307,-0.0325,-0.0335,-0.0347,-0.035,-0.0353,-0.0379,-0.0386,-0.0393,-0.0403,-0.0408,-0.0408,-0.0422,-0.0422,-0.0397,0,0,0,-0.0314,-0.0306,-0.0323,-0.0317,-0.0347,-0.0366,-0.0353,-0.0384,-0.0388,-0.0403,-0.0408,-0.0409,-0.0423,-0.0422,-0.0398,-0.0383,0,0,0,-0.0304,-0.0305,-0.0312,-0.0316,-0.0339,-0.0366,-0.0375,-0.0385,-0.0394,-0.0407,-0.0409,-0.0423,-0.0422,-0.0398,-0.0384,-0.0408,0,0,0,-0.0289,-0.0292,-0.0312,-0.0319,-0.0339,-0.0368,-0.0375,-0.0397,-0.0409,-0.0408,-0.0423,-0.0422,-0.0399,-0.0385,-0.0408,-0.0405,-0.0403,0,0,-0.0282,-0.0291,-0.0295,-0.0314,-0.0328,-0.0361,-0.0372,-0.0392,-0.0404,-0.0411,-0.0412,-0.0397,-0.0384,-0.0408,-0.0394,-0.0393,0,0,0,-0.0285,-0.0282,-0.0294,-0.0305,-0.0338,-0.0354,-0.0384,-0.0391,-0.0396,-0.0412,-0.0401,-0.0393,-0.041,-0.0408,-0.0407,-0.0386,-0.0422,-0.0422,-0.0422,-0.0254,-0.0266,-0.0271,-0.029,-0.0309,-0.0348,-0.036,-0.0372,-0.0392,-0.0387,-0.0375,-0.0378,-0.0375,-0.0374,-0.0352,-0.0381,-0.0381,-0.038,-0.038,-0.0241,-0.0243,-0.025,-0.0259,-0.0282,-0.0296,-0.0324,-0.0337,-0.0353,-0.0356,-0.0374,-0.0383,-0.0371,-0.0348,-0.0379,-0.0379,-0.0379,-0.0379,-0.038,-0.0226,-0.0228,-0.0234,-0.0247,-0.025,-0.0279,-0.0299,-0.0313,-0.0327,-0.0333,-0.0366,-0.0367,-0.0347,-0.0356,-0.0356,-0.0356,-0.0356,-0.0356,-0.0356,-0.0218,-0.022,-0.0235,-0.0244,-0.0258,-0.0276,-0.0297,-0.0316,-0.0333,-0.0339,-0.0339,-0.0341,-0.0371,-0.0372,-0.0357,-0.0356,-0.0356,-0.0356,-0.0356,-0.02,-0.0218,-0.0243,-0.0262,-0.0293,-0.031,-0.0328,-0.0345,-0.0363,-0.0368,-0.0326,-0.0354,-0.0369,-0.037,-0.0372,-0.0358,-0.0358,-0.0358,-0.0358,-0.0198,-0.0206,-0.0253,-0.0288,-0.032,-0.0326,-0.0343,-0.0342,-0.0331,-0.0317,-0.0314,-0.0304,-0.0305,-0.0315,-0.0318,-0.0319,-0.0291,-0.0291,-0.0291,-0.0198,-0.0219,-0.025,-0.029,-0.0328,-0.0337,-0.0326,-0.0274,-0.0267,-0.0286,-0.0284,-0.0287,-0.027,-0.0273,-0.0289,-0.0294,-0.0296,0,0]}],[{"header":{"parameterUnit":"m.s-1","parameterCategory":2,"la1":30.2992,"la2":30.254,"lo1":-89.0895,"lo2":-89.0443,"dy":0.0025,"dx":0.0025,"nx":19,"ny":19,"refTime":"2026-05-09T21:00:00:Z","depth":"2","parameterNumber":2,"parameterNumberName":"U-component_of_CURRENTS"},"data":[0,0,0,-0.1232,-0.1232,-0.119,-0.1189,-0.1096,-0.1095,0,0,0,0,0,0,0,0,0,0,0,-0.1246,-0.1246,-0.1232,-0.1232,-0.119,-0.1189,-0.1096,-0.1095,0,0,0,0,0,0,0,0,0,0,0,-0.1246,-0.1246,-0.1246,-0.1232,-0.119,-0.1189,-0.1097,-0.1135,0,0,0,0,0,0,0,0,0,0,-0.1179,-0.1212,-0.1246,-0.1246,-0.1232,-0.119,-0.1189,-0.1137,-0.1133,-0.1108,0,-0.1111,0,-0.1106,-0.109,-0.1089,0,0,0,-0.1218,-0.1217,-0.1198,-0.1246,-0.1231,-0.119,-0.1205,-0.1135,-0.113,-0.1102,-0.111,-0.1106,-0.1105,-0.1089,-0.1089,-0.1061,-0.1062,0,0,-0.1221,-0.1241,-0.1201,-0.1195,-0.1231,-0.1206,-0.1204,-0.1132,-0.1135,-0.1109,-0.1104,-0.1103,-0.1088,-0.1088,-0.1061,-0.1062,0,0,0,-0.1236,-0.1243,-0.1226,-0.1198,-0.1197,-0.1205,-0.1202,-0.1138,-0.1131,-0.1103,-0.1102,-0.1088,-0.1087,-0.1061,-0.1061,-0.1157,0,0,0,-0.1237,-0.1252,-0.1228,-0.1239,-0.1199,-0.1175,-0.121,-0.1135,-0.1127,-0.1103,-0.1088,-0.1086,-0.106,-0.1061,-0.1153,-0.1172,0,0,0,-0.1246,-0.1254,-0.125,-0.124,-0.1227,-0.1176,-0.1165,-0.1134,-0.1127,-0.1089,-0.1086,-0.106,-0.1061,-0.115,-0.1167,-0.1175,0,0,0,-0.1264,-0.1258,-0.1251,-0.1238,-0.1228,-0.1188,-0.1165,-0.1134,-0.1103,-0.1087,-0.106,-0.1061,-0.1149,-0.1164,-0.1173,-0.0994,-0.0991,0,0,-0.1261,-0.1259,-0.1246,-0.1239,-0.1216,-0.1192,-0.1185,-0.1142,-0.1111,-0.1078,-0.1077,-0.1155,-0.1167,-0.1175,-0.1044,-0.104,0,0,0,-0.1247,-0.1246,-0.1232,-0.1224,-0.1193,-0.1209,-0.1164,-0.1164,-0.1166,-0.1101,-0.1145,-0.1149,-0.1151,-0.1038,-0.1035,-0.1065,-0.1065,-0.1065,-0.1065,-0.1268,-0.1252,-0.1243,-0.1231,-0.1222,-0.1216,-0.1233,-0.1232,-0.1182,-0.1216,-0.1222,-0.1282,-0.1164,-0.1159,-0.1226,-0.1226,-0.1227,-0.1227,-0.1227,-0.1261,-0.1242,-0.1268,-0.1254,-0.1278,-0.1281,-0.1311,-0.1315,-0.1334,-0.13,-0.1298,-0.1137,-0.1161,-0.1235,-0.1233,-0.1232,-0.1232,-0.1231,-0.1231,-0.1248,-0.1238,-0.1252,-0.1255,-0.1297,-0.1312,-0.1327,-0.1374,-0.1401,-0.1427,-0.1245,-0.124,-0.1321,-0.1408,-0.1408,-0.1409,-0.1409,-0.1409,-0.1409,-0.1208,-0.1225,-0.1214,-0.1237,-0.1236,-0.1258,-0.132,-0.1316,-0.1306,-0.1308,-0.1306,-0.1342,-0.1336,-0.1329,-0.1411,-0.1411,-0.1411,-0.141,-0.141,-0.1137,-0.1151,-0.1122,-0.1116,-0.1111,-0.1097,-0.1166,-0.1138,-0.1156,-0.112,-0.1231,-0.1234,-0.1172,-0.117,-0.1158,-0.1191,-0.1191,-0.1191,-0.1191,-0.1077,-0.1087,-0.103,-0.0995,-0.0966,-0.101,-0.0928,-0.0911,-0.0972,-0.0959,-0.097,-0.09,-0.0912,-0.0832,-0.0838,-0.0818,-0.0763,-0.0762,-0.0762,-0.1017,-0.1011,-0.0948,-0.0932,-0.0898,-0.0901,-0.0836,-0.0704,-0.0596,-0.0751,-0.0955,-0.1151,-0.1071,-0.1082,-0.0975,-0.098,-0.0953,0,0]},{"header":{"parameterUnit":"m.s-1","parameterCategory":2,"la1":30.2992,"la2":30.254,"lo1":-89.0895,"lo2":-89.0443,"dy":0.0025,"dx":0.0025,"nx":19,"ny":19,"refTime":"2026-05-09T21:00:00:Z","depth":"2","parameterNumber":3,"parameterNumberName":"V-component_of_CURRENTS"},"data":[0,0,0,0.0062,0.0065,0.0202,0.0203,0.0377,0.0378,0,0,0,0,0,0,0,0,0,0,0,0.0013,0.0013,0.0062,0.0065,0.0202,0.0203,0.0377,0.0378,0,0,0,0,0,0,0,0,0,0,0,0.0012,0.0013,0.0014,0.0065,0.0202,0.0203,0.0376,0.0277,0,0,0,0,0,0,0,0,0,0,0.0145,0.0104,0.0013,0.0014,0.0066,0.0202,0.0203,0.0273,0.0283,0.0309,0,0.0319,0,0.0347,0.0388,0.0389,0,0,0,0.0082,0.0095,0.0119,0.0014,0.0067,0.0202,0.0145,0.0279,0.0291,0.0323,0.0322,0.0329,0.035,0.0389,0.039,0.0368,0.0367,0,0,0.0074,0.0056,0.0111,0.0126,0.009,0.0141,0.0149,0.0286,0.0301,0.0323,0.0333,0.0353,0.039,0.0391,0.037,0.0368,0,0,0,0.0041,0.005,0.0072,0.0119,0.0141,0.0144,0.0154,0.0295,0.0298,0.0335,0.0355,0.0391,0.0393,0.0371,0.0369,0.0287,0,0,0,0.0037,0.003,0.0068,0.0061,0.0138,0.0223,0.016,0.0289,0.0305,0.0354,0.0391,0.0394,0.0373,0.037,0.0292,0.0293,0,0,0,0.0009,0.0028,0.0036,0.0059,0.011,0.0221,0.0234,0.0293,0.0317,0.0389,0.0395,0.0374,0.037,0.0297,0.03,0.0295,0,0,0,-0.0004,-0.0011,0.0035,0.0028,0.0108,0.0104,0.0233,0.0274,0.0324,0.0392,0.0372,0.0369,0.0299,0.0304,0.0298,0.0203,0.018,0,0,-0.0029,-0.0014,-0.0025,0.0019,-0.0012,0.0087,0.0069,0.021,0.028,0.0335,0.0335,0.029,0.03,0.0296,0.0016,-0.0001,0,0,0,-0.0045,-0.0057,-0.0062,-0.0056,-0.0041,-0.0005,0.0092,0.0132,0.0202,0.0293,0.0247,0.0256,0.0257,0.0204,0.0188,0.0354,0.0354,0.0355,0.0355,-0.0109,-0.0106,-0.0139,-0.0137,-0.013,-0.0069,-0.0032,0.0038,0.0099,0.0097,0.0155,0.0053,-0.0011,-0.0022,0.0098,0.0097,0.0097,0.0097,0.0096,-0.0187,-0.0211,-0.0194,-0.0223,-0.0191,-0.019,-0.0119,-0.0065,-0.0019,0.0026,0.003,0.0076,-0.0042,0.0089,0.009,0.0092,0.0092,0.0093,0.0093,-0.025,-0.0259,-0.0266,-0.0287,-0.0276,-0.0234,-0.0203,-0.0134,-0.0072,-0.0064,-0.0084,-0.0083,0.0066,-0.0061,-0.0061,-0.0061,-0.0061,-0.0061,-0.0061,-0.0308,-0.0315,-0.0344,-0.0352,-0.0353,-0.0328,-0.0245,-0.0215,-0.0184,-0.0163,-0.0163,0.0002,0.0007,0.0057,-0.0063,-0.0062,-0.0062,-0.0062,-0.0062,-0.0384,-0.037,-0.0417,-0.0429,-0.0441,-0.0478,-0.0388,-0.0373,-0.0316,-0.0332,-0.0215,-0.0211,-0.0173,-0.0162,-0.0118,-0.0274,-0.0274,-0.0274,-0.0274,-0.0422,-0.0424,-0.0474,-0.0505,-0.0538,-0.0543,-0.0606,-0.0545,-0.0443,-0.0379,-0.0374,-0.0388,-0.0379,-0.035,-0.0335,-0.0292,-0.0494,-0.0494,-0.0494,-0.0464,-0.0469,-0.0513,-0.0541,-0.0586,-0.0645,-0.0742,-0.0628,-0.0448,-0.0497,-0.0347,-0.0302,-0.0311,-0.03,-0.024,-0.0223,-0.0147,0,0]}],[{"header":{"parameterUnit":"m.s-1","parameterCategory":2,"la1":30.2992,"la2":30.254,"lo1":-89.0895,"lo2":-89.0443,"dy":0.0025,"dx":0.0025,"nx":19,"ny":19,"refTime":"2026-05-09T21:00:00:Z","depth":"4","parameterNumber":2,"parameterNumberName":"U-component_of_CURRENTS"},"data":[0,0,0,-0.0658,-0.0659,-0.0701,-0.0701,-0.0734,-0.0734,0,0,0,0,0,0,0,0,0,0,0,-0.0642,-0.0642,-0.0658,-0.0659,-0.0701,-0.0701,-0.0734,-0.0734,0,0,0,0,0,0,0,0,0,0,0,-0.0642,-0.0642,-0.0642,-0.0659,-0.0701,-0.0701,-0.0734,-0.0706,0,0,0,0,0,0,0,0,0,0,-0.0667,-0.0655,-0.0642,-0.0642,-0.0659,-0.0701,-0.0701,-0.0705,-0.0708,-0.0709,0,-0.072,0,-0.073,-0.0736,-0.0736,0,0,0,-0.0655,-0.0652,-0.0667,-0.0643,-0.066,-0.0701,-0.0681,-0.0707,-0.071,-0.0713,-0.0721,-0.0722,-0.0731,-0.0736,-0.0736,-0.0778,-0.0779,0,0,-0.0652,-0.0645,-0.0665,-0.067,-0.0676,-0.068,-0.0682,-0.0709,-0.0712,-0.0721,-0.0723,-0.0731,-0.0736,-0.0737,-0.0778,-0.0778,0,0,0,-0.0648,-0.0643,-0.0658,-0.0668,-0.0679,-0.0681,-0.0684,-0.071,-0.0717,-0.0724,-0.0732,-0.0737,-0.0737,-0.0778,-0.0778,-0.0782,0,0,0,-0.0647,-0.0641,-0.0657,-0.0652,-0.0679,-0.0698,-0.0685,-0.0715,-0.0718,-0.0731,-0.0737,-0.0737,-0.0778,-0.0778,-0.0782,-0.0778,0,0,0,-0.0639,-0.064,-0.0648,-0.0652,-0.0673,-0.0698,-0.0705,-0.0716,-0.0723,-0.0736,-0.0737,-0.0777,-0.0778,-0.0781,-0.0777,-0.0759,0,0,0,-0.0626,-0.0638,-0.0648,-0.0666,-0.0673,-0.0708,-0.0705,-0.073,-0.0744,-0.0737,-0.0778,-0.0778,-0.0781,-0.0777,-0.0759,-0.0649,0,0,0,-0.0632,-0.0638,-0.065,-0.066,-0.069,-0.0702,-0.0733,-0.0748,-0.0751,-0.0766,-0.0767,-0.0782,-0.0777,-0.0759,-0.0684,0,0,0,0,-0.0647,-0.0653,-0.0665,-0.0686,-0.0714,-0.0735,-0.0756,-0.0765,-0.0781,-0.0763,-0.0792,-0.0789,-0.0777,-0.0714,-0.0781,-0.0781,-0.0781,-0.0781,-0.0781,-0.0624,-0.0649,-0.0669,-0.0701,-0.0727,-0.0762,-0.0776,-0.0791,-0.0797,-0.0807,-0.08,-0.08,-0.0736,-0.0812,-0.0812,-0.0812,-0.0812,-0.0812,-0.0812,-0.0616,-0.0621,-0.0665,-0.0693,-0.0729,-0.0759,-0.0797,-0.0804,-0.0811,-0.0819,-0.0807,-0.0733,-0.0813,-0.0813,-0.0813,-0.0813,-0.0813,-0.0813,-0.0812,-0.0578,-0.0585,-0.0617,-0.0659,-0.0702,-0.0751,-0.0762,-0.0789,-0.0809,-0.0804,-0.072,-0.0796,-0.0785,-0.0793,-0.0793,-0.0793,-0.0793,-0.0793,-0.0793,-0.0516,-0.0551,-0.0567,-0.0621,-0.0651,-0.0688,-0.0735,-0.0734,-0.0759,-0.0709,-0.0798,-0.0793,-0.0794,-0.0784,-0.0792,-0.0792,-0.0792,-0.0792,-0.0792,-0.0453,-0.0476,-0.0495,-0.0523,-0.0586,-0.0611,-0.0667,-0.0641,-0.0625,-0.0596,-0.0651,-0.0659,-0.0641,-0.0645,-0.0629,-0.0591,-0.0589,-0.0588,0,-0.0399,-0.0416,-0.0433,-0.0462,-0.0492,-0.0561,-0.0523,-0.0535,-0.0549,-0.0531,-0.0643,-0.0708,-0.0712,-0.0696,-0.0697,-0.068,0,0,0,-0.0354,-0.0373,-0.0364,-0.0412,-0.0451,-0.0468,-0.0511,-0.048,-0.0552,-0.0495,-0.0552,-0.0562,-0.0706,-0.0788,-0.0778,-0.0778,-0.0761,0,0]},{"header":{"parameterUnit":"m.s-1","parameterCategory":2,"la1":30.2992,"la2":30.254,"lo1":-89.0895,"lo2":-89.0443,"dy":0.0025,"dx":0.0025,"nx":19,"ny":19,"refTime":"2026-05-09T21:00:00:Z","depth":"4","parameterNumber":3,"parameterNumberName":"V-component_of_CURRENTS"},"data":[0,0,0,-0.0291,-0.0291,-0.0288,-0.0288,-0.027,-0.027,0,0,0,0,0,0,0,0,0,0,0,-0.0291,-0.0291,-0.0291,-0.0291,-0.0288,-0.0288,-0.027,-0.027,0,0,0,0,0,0,0,0,0,0,0,-0.0291,-0.0291,-0.0291,-0.0291,-0.0288,-0.0288,-0.027,-0.0275,0,0,0,0,0,0,0,0,0,0,-0.0279,-0.0288,-0.0291,-0.0291,-0.0291,-0.0288,-0.0288,-0.0275,-0.0274,-0.0268,0,-0.027,0,-0.0271,-0.0268,-0.0268,0,0,0,-0.0287,-0.0289,-0.0283,-0.0291,-0.0291,-0.0288,-0.0289,-0.0275,-0.0274,-0.0267,-0.027,-0.0269,-0.0271,-0.0268,-0.0268,-0.0226,-0.0225,0,0,-0.0287,-0.0294,-0.0284,-0.0283,-0.0294,-0.0289,-0.0289,-0.0274,-0.0277,-0.027,-0.0269,-0.0271,-0.0268,-0.0268,-0.0226,-0.0226,0,0,0,-0.0291,-0.0294,-0.0289,-0.0284,-0.0285,-0.0289,-0.0289,-0.0278,-0.0275,-0.0269,-0.027,-0.0268,-0.0268,-0.0226,-0.0226,-0.0292,0,0,0,-0.0291,-0.0296,-0.029,-0.0294,-0.0286,-0.0285,-0.0293,-0.0276,-0.0275,-0.0271,-0.0268,-0.0268,-0.0227,-0.0226,-0.0291,-0.0364,0,0,0,-0.0291,-0.0297,-0.0296,-0.0294,-0.0294,-0.0286,-0.0282,-0.0276,-0.0276,-0.0268,-0.0268,-0.0227,-0.0226,-0.029,-0.0361,-0.0402,0,0,0,-0.0298,-0.0313,-0.0296,-0.0315,-0.0295,-0.0295,-0.0282,-0.0283,-0.0279,-0.0268,-0.0227,-0.0226,-0.029,-0.0358,-0.04,-0.0333,0,0,0,-0.0323,-0.0316,-0.0327,-0.0312,-0.0334,-0.0295,-0.0306,-0.0295,-0.0261,-0.023,-0.023,-0.0291,-0.036,-0.0402,-0.0286,0,0,0,0,-0.0339,-0.0352,-0.0352,-0.0362,-0.0347,-0.035,-0.0317,-0.0297,-0.0272,-0.0255,-0.0256,-0.0298,-0.0322,-0.0273,-0.0222,-0.0222,-0.0222,-0.0222,-0.0222,-0.0387,-0.0386,-0.0414,-0.0411,-0.0408,-0.0382,-0.0382,-0.0343,-0.029,-0.0276,-0.0324,-0.0369,-0.0313,-0.0267,-0.0268,-0.0268,-0.0268,-0.0268,-0.0269,-0.0442,-0.0465,-0.0469,-0.0498,-0.0489,-0.049,-0.045,-0.0419,-0.0411,-0.0346,-0.0364,-0.0311,-0.0274,-0.0273,-0.0272,-0.0272,-0.0271,-0.0271,-0.0271,-0.0481,-0.0494,-0.0516,-0.0559,-0.0588,-0.0562,-0.0581,-0.0546,-0.05,-0.0523,-0.0448,-0.0426,-0.0454,-0.0513,-0.0514,-0.0514,-0.0515,-0.0515,-0.0515,-0.0509,-0.0533,-0.0575,-0.0616,-0.0641,-0.066,-0.0655,-0.0643,-0.0607,-0.0545,-0.0546,-0.0453,-0.0445,-0.0467,-0.0523,-0.0522,-0.0521,-0.052,-0.0519,-0.0545,-0.0558,-0.0614,-0.0648,-0.07,-0.0704,-0.0709,-0.0662,-0.0664,-0.0634,-0.0544,-0.0541,-0.0524,-0.0514,-0.0539,-0.0619,-0.0618,-0.0618,0,-0.0562,-0.0575,-0.064,-0.0688,-0.0721,-0.0724,-0.0686,-0.0667,-0.0637,-0.0625,-0.0682,-0.0585,-0.0579,-0.056,-0.0551,-0.058,0,0,0,-0.0578,-0.0594,-0.0637,-0.069,-0.0726,-0.0684,-0.0671,-0.0647,-0.0635,-0.0598,-0.0603,-0.0607,-0.0541,-0.0545,-0.0512,-0.0502,-0.0537,0,0]}]]